TimeCDT,TemperatureF,Dew PointF,Humidity,Sea Level PressureIn,VisibilityMPH,Wind Direction,Wind SpeedMPH,Gust SpeedMPH,PrecipitationIn,Events,Conditions,WindDirDegrees,DateUTC
12:15 AM,44.6,37.4,76,30.18,10.0,Calm,Calm,-,N/A,,Clear,0,2013-05-10 05:15:00
12:55 AM,42.8,37.4,81,30.18,10.0,Calm,Calm,-,N/A,,Clear,0,2013-05-10 05:55:00
1:15 AM,42.8,37.4,81,30.19,10.0,Calm,Calm,-,N/A,,Clear,0,2013-05-10 06:15:00
1:35 AM,42.8,37.4,81,30.19,10.0,ESE,3.5,-,N/A,,Clear,120,2013-05-10 06:35:00
1:56 AM,42.8,37.4,81,30.18,10.0,Calm,Calm,-,N/A,,Clear,0,2013-05-10 06:56:00
2:15 AM,42.8,37.4,81,30.18,10.0,Calm,Calm,-,N/A,,Clear,0,2013-05-10 07:15:00
2:35 AM,41.0,37.4,87,30.18,10.0,Calm,Calm,-,N/A,,Clear,0,2013-05-10 07:35:00
2:56 AM,39.2,37.4,93,30.18,10.0,ESE,4.6,-,N/A,,Clear,120,2013-05-10 07:56:00
3:15 AM,41.0,37.4,87,30.17,10.0,SE,5.8,-,N/A,,Clear,130,2013-05-10 08:15:00
3:35 AM,39.2,37.4,93,30.18,10.0,SE,6.9,-,N/A,,Clear,140,2013-05-10 08:35:00
3:56 AM,39.2,37.4,93,30.18,10.0,SE,6.9,-,N/A,,Clear,140,2013-05-10 08:56:00
4:15 AM,37.4,35.6,93,30.18,10.0,SSE,6.9,-,N/A,,Clear,150,2013-05-10 09:15:00
4:35 AM,37.4,35.6,93,30.18,10.0,SSE,6.9,-,N/A,,Clear,150,2013-05-10 09:35:00
4:56 AM,37.4,33.8,87,30.17,10.0,SSE,6.9,-,N/A,,Clear,150,2013-05-10 09:56:00
5:15 AM,35.6,33.8,93,30.17,10.0,SSE,6.9,-,N/A,,Clear,150,2013-05-10 10:15:00
5:35 AM,35.6,32.0,87,30.16,10.0,SE,5.8,-,N/A,,Clear,140,2013-05-10 10:35:00
5:56 AM,35.6,32.0,87,30.16,10.0,SSE,6.9,-,N/A,,Clear,150,2013-05-10 10:56:00
6:15 AM,35.6,32.0,87,30.15,10.0,SSE,9.2,-,N/A,,Clear,150,2013-05-10 11:15:00
6:35 AM,35.6,32.0,87,30.15,10.0,SSE,5.8,-,N/A,,Clear,150,2013-05-10 11:35:00
7:15 AM,37.4,32.0,81,30.16,10.0,SSE,6.9,-,N/A,,Clear,150,2013-05-10 12:15:00
7:36 AM,37.4,32.0,81,30.16,10.0,SSE,5.8,-,N/A,,Clear,150,2013-05-10 12:36:00
8:15 AM,41.0,30.2,65,30.16,10.0,SSE,11.5,-,N/A,,Clear,160,2013-05-10 13:15:00
8:35 AM,42.8,30.2,61,30.15,10.0,SSE,11.5,-,N/A,,Clear,160,2013-05-10 13:35:00
8:56 AM,42.8,30.2,61,30.15,10.0,SSE,12.7,-,N/A,,Clear,160,2013-05-10 13:56:00
9:15 AM,44.6,30.2,57,30.14,10.0,SE,10.4,-,N/A,,Clear,140,2013-05-10 14:15:00
9:36 AM,44.6,30.2,57,30.13,10.0,SSE,10.4,-,N/A,,Clear,150,2013-05-10 14:36:00
9:55 AM,46.4,30.2,53,30.12,10.0,SE,11.5,-,N/A,,Clear,140,2013-05-10 14:55:00
10:15 AM,48.2,30.2,50,30.11,10.0,South,11.5,-,N/A,,Clear,170,2013-05-10 15:15:00
10:36 AM,50.0,30.2,47,30.11,10.0,SSE,10.4,-,N/A,,Clear,160,2013-05-10 15:36:00
10:55 AM,50.0,30.2,47,30.11,10.0,SSW,11.5,-,N/A,,Clear,210,2013-05-10 15:55:00
11:15 AM,50.0,30.2,47,30.11,10.0,SSW,11.5,-,N/A,,Clear,210,2013-05-10 16:15:00
11:36 AM,51.8,30.2,44,30.10,10.0,South,8.1,-,N/A,,Clear,190,2013-05-10 16:36:00
12:15 PM,55.4,30.2,38,30.08,10.0,SSW,10.4,-,N/A,,Clear,200,2013-05-10 17:15:00
12:36 PM,55.4,30.2,38,30.07,10.0,SSW,9.2,-,N/A,,Clear,210,2013-05-10 17:36:00
12:55 PM,57.2,30.2,36,30.05,10.0,SSW,13.8,18.4,N/A,,Clear,200,2013-05-10 17:55:00
1:15 PM,59.0,32.0,36,30.04,10.0,SSW,13.8,20.7,N/A,,Clear,210,2013-05-10 18:15:00
1:36 PM,59.0,32.0,36,30.03,10.0,SW,11.5,18.4,N/A,,Clear,220,2013-05-10 18:36:00
1:56 PM,60.8,32.0,34,30.02,10.0,SSW,12.7,20.7,N/A,,Clear,210,2013-05-10 18:56:00
2:15 PM,60.8,32.0,34,30.01,10.0,SW,10.4,21.9,N/A,,Clear,220,2013-05-10 19:15:00
2:36 PM,60.8,32.0,34,30.00,10.0,SW,16.1,-,N/A,,Clear,220,2013-05-10 19:36:00
2:56 PM,62.6,32.0,32,29.99,10.0,SW,15.0,18.4,N/A,,Clear,220,2013-05-10 19:56:00
3:15 PM,62.6,32.0,32,29.97,10.0,SSW,16.1,19.6,N/A,,Clear,210,2013-05-10 20:15:00
3:36 PM,62.6,32.0,32,29.96,10.0,SSW,13.8,23.0,N/A,,Clear,210,2013-05-10 20:36:00
3:56 PM,62.6,32.0,32,29.95,10.0,SSW,11.5,-,N/A,,Clear,200,2013-05-10 20:56:00
4:15 PM,62.6,32.0,32,29.93,10.0,SSW,13.8,17.3,N/A,,Clear,210,2013-05-10 21:15:00
4:35 PM,62.6,32.0,32,29.92,10.0,SW,9.2,-,N/A,,Clear,220,2013-05-10 21:35:00
4:55 PM,62.6,32.0,32,29.91,10.0,SSW,12.7,17.3,N/A,,Scattered Clouds,210,2013-05-10 21:55:00
5:35 PM,62.6,35.6,37,29.90,10.0,SW,12.7,-,N/A,,Drizzle,230,2013-05-10 22:35:00
5:55 PM,60.8,42.8,52,29.89,10.0,SSW,3.5,-,N/A,Rain,Light Rain,210,2013-05-10 22:55:00
6:15 PM,60.8,42.8,52,29.88,10.0,SW,3.5,-,N/A,Rain,Light Rain,220,2013-05-10 23:15:00
6:35 PM,60.8,39.2,45,29.88,10.0,West,17.3,33.4,N/A,Rain,Light Rain,270,2013-05-10 23:35:00
6:56 PM,59.0,37.4,45,29.92,10.0,North,27.6,41.4,N/A,,Scattered Clouds,350,2013-05-10 23:56:00
7:15 PM,55.4,37.4,51,29.94,10.0,North,18.4,38.0,N/A,,Scattered Clouds,360,2013-05-11 00:15:00
7:35 PM,55.4,37.4,51,29.95,10.0,North,24.2,36.8,N/A,,Scattered Clouds,360,2013-05-11 00:35:00
7:56 PM,53.6,35.6,51,29.97,10.0,North,23.0,38.0,N/A,,Clear,350,2013-05-11 00:56:00
8:15 PM,51.8,35.6,54,29.98,10.0,NNW,23.0,31.1,N/A,,Clear,340,2013-05-11 01:15:00
8:35 PM,50.0,33.8,54,29.99,10.0,North,27.6,38.0,N/A,,Clear,350,2013-05-11 01:35:00
8:56 PM,50.0,35.6,58,30.01,10.0,NNW,25.3,32.2,N/A,,Clear,340,2013-05-11 01:56:00
9:16 PM,46.4,35.6,66,30.02,10.0,NNW,23.0,26.5,N/A,,Clear,340,2013-05-11 02:16:00
9:35 PM,46.4,35.6,66,30.04,10.0,NNW,23.0,29.9,N/A,,Clear,340,2013-05-11 02:35:00
9:56 PM,44.6,35.6,71,30.05,10.0,NNW,20.7,27.6,N/A,,Clear,340,2013-05-11 02:56:00
10:16 PM,44.6,35.6,71,30.05,10.0,North,17.3,27.6,N/A,,Clear,350,2013-05-11 03:16:00
10:35 PM,44.6,33.8,66,30.06,10.0,North,17.3,26.5,N/A,,Clear,350,2013-05-11 03:35:00
10:56 PM,42.8,33.8,70,30.07,10.0,North,10.4,18.4,N/A,,Clear,360,2013-05-11 03:56:00
11:16 PM,42.8,33.8,70,30.07,10.0,North,6.9,-,N/A,,Clear,10,2013-05-11 04:16:00
11:35 PM,42.8,32.0,66,30.07,10.0,North,8.1,23.0,N/A,,Clear,360,2013-05-11 04:35:00
11:56 PM,42.8,33.8,70,30.09,10.0,North,11.5,16.1,N/A,,Clear,350,2013-05-11 04:56:00